Location: Chuathbaluk
(61.5726°N, 159.2454°W)
Time: 11:15:14
(UTC+00:00)

Explorer 7 - Pass Details

Date: 28 November 2020
Orbit: 484 x 678 km, 50.3° (Epoch: 17 January)

Event Time Altitude Azimuth Distance (km) Brightness Sun altitude
Exits shadow 17:28:27 - 244° (WSW) 2,187 9.5 -11.6°
Reaches altitude 10° 17:30:21 10° 223° (SW) 1,808 9.3 -11.4°
Maximum altitude 17:31:33 11° 206° (SSW) 1,720 9.3 -11.3°
Drops below altitude 10° 17:32:44 10° 189° (S) 1,775 9.6 -11.1°
Sets 17:36:23 0° 153° (SSE) 2,614 11.2 -10.7°
